TimeEST,TemperatureF,Dew PointF,Humidity,Sea Level PressureIn,VisibilityMPH,Wind Direction,Wind SpeedMPH,Gust SpeedMPH,PrecipitationIn,Events,Conditions,WindDirDegrees,DateUTC
12:53 AM,32.0,28.0,85,30.14,8.0,Calm,Calm,-,N/A,,Clear,0,2012-11-08 05:53:00
1:53 AM,32.0,28.0,85,30.14,7.0,ENE,3.5,-,N/A,,Clear,70,2012-11-08 06:53:00
2:53 AM,30.9,28.0,89,30.15,7.0,Calm,Calm,-,N/A,,Clear,0,2012-11-08 07:53:00
3:53 AM,30.0,27.0,88,30.16,6.0,Calm,Calm,-,N/A,,Clear,0,2012-11-08 08:53:00
4:53 AM,28.0,26.1,92,30.18,4.0,Calm,Calm,-,N/A,,Clear,0,2012-11-08 09:53:00
5:53 AM,28.0,26.1,92,30.19,3.0,Calm,Calm,-,N/A,,Clear,0,2012-11-08 10:53:00
6:11 AM,28.4,26.6,93,30.17,2.5,Calm,Calm,-,N/A,,Clear,0,2012-11-08 11:11:00
6:29 AM,28.4,26.6,93,30.18,1.5,Calm,Calm,-,N/A,,Clear,0,2012-11-08 11:29:00
6:53 AM,28.0,25.0,88,30.21,1.2,Calm,Calm,-,N/A,,Clear,0,2012-11-08 11:53:00
7:03 AM,28.4,24.8,86,30.19,1.2,Calm,Calm,-,N/A,,Partly Cloudy,0,2012-11-08 12:03:00
7:11 AM,28.4,26.6,93,30.19,2.0,Calm,Calm,-,N/A,,Mostly Cloudy,0,2012-11-08 12:11:00
7:16 AM,26.6,24.8,93,30.19,0.8,Calm,Calm,-,N/A,,Mostly Cloudy,0,2012-11-08 12:16:00
7:26 AM,26.6,26.6,100,30.20,0.2,Calm,Calm,-,N/A,Fog,Light Freezing Fog,0,2012-11-08 12:26:00
7:53 AM,28.0,26.1,92,30.23,0.2,Calm,Calm,-,N/A,Fog,Light Freezing Fog,0,2012-11-08 12:53:00
8:53 AM,30.9,30.0,96,30.25,0.2,Calm,Calm,-,N/A,Fog,Light Freezing Fog,0,2012-11-08 13:53:00
9:22 AM,33.8,33.8,100,30.23,1.0,Calm,Calm,-,N/A,,Mist,0,2012-11-08 14:22:00
9:39 AM,35.6,33.8,93,30.23,2.0,Calm,Calm,-,N/A,,Scattered Clouds,0,2012-11-08 14:39:00
9:53 AM,36.0,35.1,97,30.25,2.0,Calm,Calm,-,N/A,,Partly Cloudy,0,2012-11-08 14:53:00
10:13 AM,37.4,35.6,93,30.23,3.0,Calm,Calm,-,N/A,,Clear,0,2012-11-08 15:13:00
10:53 AM,42.1,36.0,79,30.25,4.0,SW,3.5,-,N/A,,Haze,220,2012-11-08 15:53:00
11:53 AM,46.0,35.1,66,30.23,6.0,Calm,Calm,-,N/A,,Haze,0,2012-11-08 16:53:00
12:53 PM,48.9,36.0,61,30.21,7.0,SW,3.5,-,N/A,,Clear,220,2012-11-08 17:53:00
1:53 PM,50.0,36.0,59,30.19,7.0,SW,5.8,-,N/A,,Clear,220,2012-11-08 18:53:00
2:53 PM,50.0,35.1,57,30.18,6.0,WSW,5.8,-,N/A,,Haze,240,2012-11-08 19:53:00
3:53 PM,50.0,36.0,59,30.18,7.0,West,6.9,-,N/A,,Partly Cloudy,270,2012-11-08 20:53:00
4:53 PM,46.9,36.0,66,30.17,7.0,Calm,Calm,-,N/A,,Clear,0,2012-11-08 21:53:00
5:53 PM,43.0,35.1,74,30.17,7.0,Calm,Calm,-,N/A,,Clear,0,2012-11-08 22:53:00
6:53 PM,39.0,34.0,82,30.18,7.0,Calm,Calm,-,N/A,,Clear,0,2012-11-08 23:53:00
7:53 PM,36.0,33.1,89,30.18,6.0,Calm,Calm,-,N/A,,Clear,0,2012-11-09 00:53:00
8:53 PM,37.0,33.1,86,30.18,5.0,Calm,Calm,-,N/A,,Clear,0,2012-11-09 01:53:00
9:53 PM,35.1,32.0,89,30.18,4.0,Calm,Calm,-,N/A,,Clear,0,2012-11-09 02:53:00
10:20 PM,33.8,30.2,87,30.16,2.5,Calm,Calm,-,N/A,,Clear,0,2012-11-09 03:20:00
10:53 PM,33.1,30.9,92,30.17,2.5,Calm,Calm,-,N/A,,Clear,0,2012-11-09 03:53:00
11:01 PM,33.8,30.2,87,30.15,3.0,SSE,4.6,-,N/A,,Clear,150,2012-11-09 04:01:00
11:41 PM,32.0,30.2,93,30.15,2.5,ESE,3.5,-,0.00,,Clear,120,2012-11-09 04:41:00
11:53 PM,30.9,28.9,92,30.17,2.5,ESE,3.5,-,0.00,,Clear,120,2012-11-09 04:53:00